Weather History for Atlanta Dekalb, GA

Change the Weather History Date:

Thursday, November 23, 2006

  Actual Average Record
Temperature  
Mean Temperature 52 °F 51 °F  
Max Temperature 68 °F 61 °F 71 °F (2012)
Min Temperature 36 °F 40 °F 28 °F (2008)
Degree Days  
Heating Degree Days 13 15  
Month to date heating degree days 265  
Since 1 July heating degree days 417  
Growing Degree Days 2 (Base 50)    
Moisture  
Dew Point 32 °F    
Average Humidity 57    
Maximum Humidity 86    
Minimum Humidity 30    
Precipitation  
Precipitation 0.00 in 0.14 in 2.10 in (2004)
Month to date precipitation 3.16  
Year to date precipitation 47.75  
Sea Level Pressure  
Sea Level Pressure 30.14 in    
Wind  
Wind Speed 2 mph (NW)    
Max Wind Speed 9 mph    
Max Gust Speed -    
Visibility 10 miles    
Events      
T = Trace of Precipitation, MM = Missing Value Source: NWS Daily Summary

Daily Weather History Graph

Daily Weather History Graph

Search for Another Location

Airport:

Trip Planner

Search our weather history database for the weather conditions in past years. The results will help you decide how hot, cold, wet, or windy it might be!

Date:

Astronomy

Nov. 23, 2006 Rise Set
Actual Time 7:16 AM EST 5:30 PM EST
Civil Twilight 6:49 AM EST 5:57 PM EST
Nautical Twilight 6:19 AM EST 6:27 PM EST
Astronomical Twilight 5:49 AM EST 6:57 PM EST
Moon 10:07 AM EST (11/23) 7:38 PM EST (11/23)
Length of Visible Light 11h 07m
Length of Day
10h 13m
Waxing Crescent, 8% of the Moon is Illuminated
Nov 23
Waxing Crescent
Nov 28
First Quarter
Dec 4
Full
Dec 12
Last Quarter
Dec 20
New

Hourly Weather History & Observations

Time (EST) Temp. Windchill Dew Point Humidity Pressure Visibility Wind Dir Wind Speed Gust Speed Precip Events Conditions
12:53 AM 39.9 °F - 30.0 °F 68% 30.11 in 10.0 mi Calm Calm - N/A   Clear
1:53 AM 36.0 °F - 30.0 °F 79% 30.11 in 10.0 mi Calm Calm - N/A   Clear
2:53 AM 36.0 °F - 30.0 °F 79% 30.11 in 10.0 mi Calm Calm - N/A   Clear
3:53 AM 36.0 °F 33.3 °F 30.0 °F 79% 30.10 in 10.0 mi West 3.5 mph - N/A   Clear
4:53 AM 37.9 °F - 28.9 °F 70% 30.12 in 10.0 mi Calm Calm - N/A   Clear
5:53 AM 36.0 °F - 28.9 °F 76% 30.13 in 10.0 mi Calm Calm - N/A   Clear
6:53 AM 37.9 °F 35.5 °F 28.0 °F 68% 30.15 in 10.0 mi WSW 3.5 mph - N/A   Clear
7:53 AM 39.0 °F - 28.9 °F 67% 30.17 in 10.0 mi Calm Calm - N/A   Clear
8:53 AM 45.0 °F 42.6 °F 30.0 °F 56% 30.18 in 10.0 mi NNW 4.6 mph - N/A   Clear
9:53 AM 50.0 °F - 28.9 °F 44% 30.19 in 10.0 mi NNW 3.5 mph - N/A   Clear
10:53 AM 55.9 °F - 30.9 °F 39% 30.19 in 10.0 mi NNW 5.8 mph - N/A   Clear
11:53 AM 62.1 °F - 33.1 °F 34% 30.17 in 10.0 mi NNW 5.8 mph - N/A   Clear
12:53 PM 64.9 °F - 34.0 °F 32% 30.14 in 10.0 mi Calm Calm - N/A   Clear
1:53 PM 66.9 °F - 35.1 °F 31% 30.12 in 10.0 mi WNW 8.1 mph - N/A   Clear
2:53 PM 68.0 °F - 35.1 °F 30% 30.11 in 10.0 mi NW 6.9 mph - N/A   Clear
3:53 PM 66.9 °F - 35.1 °F 31% 30.10 in 10.0 mi NNW 9.2 mph - N/A   Clear
4:53 PM 64.0 °F - 32.0 °F 30% 30.11 in 10.0 mi NW 6.9 mph - N/A   Clear
5:53 PM 59.0 °F - 34.0 °F 39% 30.13 in 10.0 mi West 4.6 mph - N/A   Clear
6:53 PM 53.6 °F - 35.6 °F 51% 30.12 in 10.0 mi WNW 4.6 mph - N/A   Clear
7:53 PM 51.1 °F - 36.0 °F 56% 30.15 in 10.0 mi NW 3.5 mph - N/A   Clear
8:53 PM 46.0 °F - 35.1 °F 66% 30.16 in 10.0 mi Calm Calm - N/A   Clear
9:53 PM 44.1 °F - 35.1 °F 71% 30.15 in 10.0 mi Calm Calm - N/A   Clear
10:53 PM 43.0 °F - 36.0 °F 76% 30.16 in 10.0 mi Calm Calm - N/A   Clear
11:53 PM 39.0 °F - 35.1 °F 86% 30.15 in 10.0 mi Calm Calm - N/A   Clear